Location: Brunembert
(50.7122°N, 1.8935°E)
Time: 02:24:39
(UTC+00:00)

Cosmos 1500 Rocket - Pass Details

Date: 30 July 2021
Orbit: 602 x 632 km, 82.5° (Epoch: 18 September)

Event Time Altitude Azimuth Distance (km) Brightness Sun altitude
Exits shadow 23:16:07 17° 239° (WSW) 1,566 5.4 -20.4°
Maximum altitude 23:18:42 30° 290° (WNW) 1,126 5.1 -20.5°
Drops below altitude 10° 23:22:40 10° 352° (N) 2,016 7.4 -20.6°
Sets 23:25:09 0° 3° (N) 2,933 8.5 -20.6°
